Time,TemperatureF,DewpointF,PressureIn,WindDirection,WindDirectionDegrees,WindSpeedMPH,WindSpeedGustMPH,Humidity,HourlyPrecipIn,Conditions,Clouds,dailyrainin,SoftwareType,DateUTC
2013-03-08 00:02:00,45.0,41.0,30.24,NE,55,0.0,3.0,87,0.00,,,0.00,,2013-03-08 05:02:00,
2013-03-08 00:12:00,45.0,41.0,30.24,NE,55,0.0,3.0,87,0.00,,,0.00,,2013-03-08 05:12:00,
2013-03-08 00:22:00,44.0,41.0,30.23,NE,55,0.0,2.0,89,0.00,,,0.00,,2013-03-08 05:22:00,
2013-03-08 00:33:00,43.0,40.0,30.24,NE,55,0.0,1.0,90,0.00,,,0.00,,2013-03-08 05:33:00,
2013-03-08 00:42:00,43.0,40.0,30.24,NE,55,0.0,1.0,90,0.00,,,0.00,,2013-03-08 05:42:00,
2013-03-08 00:52:00,41.0,39.0,30.24,NE,54,1.0,2.0,91,0.00,,,0.00,,2013-03-08 05:52:00,
2013-03-08 01:02:00,41.0,39.0,30.23,NE,54,0.0,2.0,92,0.00,,,0.00,,2013-03-08 06:02:00,
2013-03-08 01:11:00,41.0,39.0,30.23,NE,54,0.0,2.0,92,0.00,,,0.00,,2013-03-08 06:11:00,
2013-03-08 01:22:00,41.0,39.0,30.22,NE,54,0.0,1.0,92,0.00,,,0.00,,2013-03-08 06:22:00,
2013-03-08 01:32:00,41.0,39.0,30.22,NE,54,0.0,3.0,93,0.00,,,0.00,,2013-03-08 06:32:00,
2013-03-08 01:42:00,41.0,39.0,30.22,NE,54,0.0,3.0,93,0.00,,,0.00,,2013-03-08 06:42:00,
2013-03-08 01:52:00,42.0,40.0,30.22,NE,34,0.0,3.0,94,0.00,,,0.00,,2013-03-08 06:52:00,
2013-03-08 02:01:00,42.0,40.0,30.22,NE,34,0.0,2.0,93,0.00,,,0.00,,2013-03-08 07:01:00,
2013-03-08 02:11:00,42.0,40.0,30.22,NE,34,0.0,2.0,93,0.00,,,0.00,,2013-03-08 07:11:00,
2013-03-08 02:22:00,42.0,40.0,30.22,NNE,31,1.0,3.0,93,0.00,,,0.00,,2013-03-08 07:22:00,
2013-03-08 02:32:00,42.0,40.0,30.22,NNE,28,0.0,3.0,94,0.00,,,0.00,,2013-03-08 07:32:00,
2013-03-08 02:42:00,42.0,40.0,30.22,NNE,28,0.0,3.0,94,0.00,,,0.00,,2013-03-08 07:42:00,
2013-03-08 02:52:00,43.0,41.0,30.21,NNE,28,0.0,2.0,94,0.00,,,0.00,,2013-03-08 07:52:00,
2013-03-08 03:01:00,42.0,40.0,30.21,NNE,28,0.0,2.0,94,0.00,,,0.00,,2013-03-08 08:01:00,
2013-03-08 03:11:00,42.0,40.0,30.21,NNE,28,0.0,2.0,94,0.00,,,0.00,,2013-03-08 08:11:00,
2013-03-08 03:22:00,42.0,40.0,30.20,NNE,28,0.0,2.0,93,0.00,,,0.00,,2013-03-08 08:22:00,
2013-03-08 03:32:00,42.0,40.0,30.21,NNE,28,1.0,2.0,94,0.00,,,0.00,,2013-03-08 08:32:00,
2013-03-08 03:42:00,42.0,40.0,30.21,NNE,28,1.0,2.0,94,0.00,,,0.00,,2013-03-08 08:42:00,
2013-03-08 03:52:00,42.0,40.0,30.21,NNE,28,1.0,2.0,94,0.00,,,0.00,,2013-03-08 08:52:00,
2013-03-08 04:03:00,42.0,40.0,30.19,North,360,0.0,2.0,94,0.00,,,0.00,,2013-03-08 09:03:00,
2013-03-08 04:11:00,42.0,40.0,30.19,North,360,0.0,2.0,94,0.00,,,0.00,,2013-03-08 09:11:00,
2013-03-08 04:22:00,41.0,40.0,30.19,North,360,0.0,0.0,95,0.00,,,0.00,,2013-03-08 09:22:00,
2013-03-08 04:32:00,41.0,40.0,30.19,North,360,0.0,1.0,95,0.00,,,0.00,,2013-03-08 09:32:00,
2013-03-08 04:42:00,41.0,40.0,30.19,North,360,0.0,1.0,95,0.00,,,0.00,,2013-03-08 09:42:00,
2013-03-08 04:52:00,40.0,39.0,30.19,North,360,0.0,1.0,95,0.00,,,0.00,,2013-03-08 09:52:00,
2013-03-08 05:01:00,41.0,40.0,30.19,North,360,0.0,1.0,95,0.00,,,0.00,,2013-03-08 10:01:00,
2013-03-08 05:11:00,41.0,40.0,30.19,North,360,0.0,1.0,95,0.00,,,0.00,,2013-03-08 10:11:00,
2013-03-08 05:21:00,41.0,40.0,30.20,North,360,0.0,1.0,95,0.00,,,0.00,,2013-03-08 10:21:00,
2013-03-08 05:32:00,41.0,40.0,30.20,North,360,0.0,2.0,95,0.00,,,0.00,,2013-03-08 10:32:00,
2013-03-08 05:42:00,41.0,40.0,30.20,North,360,0.0,2.0,95,0.00,,,0.00,,2013-03-08 10:42:00,
2013-03-08 05:52:00,39.0,38.0,30.21,North,360,0.0,0.0,95,0.00,,,0.00,,2013-03-08 10:52:00,
2013-03-08 06:01:00,39.0,38.0,30.21,North,360,0.0,0.0,95,0.00,,,0.00,,2013-03-08 11:01:00,
2013-03-08 06:11:00,39.0,38.0,30.21,North,360,0.0,0.0,95,0.00,,,0.00,,2013-03-08 11:11:00,
2013-03-08 06:22:00,38.0,37.0,30.21,North,360,0.0,0.0,96,0.00,,,0.00,,2013-03-08 11:22:00,
2013-03-08 06:32:00,39.0,38.0,30.21,North,360,1.0,3.0,96,0.00,,,0.00,,2013-03-08 11:32:00,
2013-03-08 06:42:00,39.0,38.0,30.21,North,360,1.0,3.0,96,0.00,,,0.00,,2013-03-08 11:42:00,
2013-03-08 06:52:00,39.0,38.0,30.21,North,5,1.0,3.0,96,0.00,,,0.00,,2013-03-08 11:52:00,
2013-03-08 07:02:00,39.0,38.0,30.22,NNE,12,1.0,4.0,96,0.00,,,0.00,,2013-03-08 12:02:00,
2013-03-08 07:11:00,39.0,38.0,30.22,NNE,12,1.0,4.0,96,0.00,,,0.00,,2013-03-08 12:11:00,
2013-03-08 07:22:00,40.0,39.0,30.22,NNE,13,1.0,3.0,96,0.00,,,0.00,,2013-03-08 12:22:00,
2013-03-08 07:32:00,41.0,40.0,30.23,NNE,13,1.0,3.0,96,0.00,,,0.00,,2013-03-08 12:32:00,
2013-03-08 07:43:00,41.0,40.0,30.23,NNE,13,1.0,3.0,96,0.00,,,0.00,,2013-03-08 12:43:00,
2013-03-08 07:53:00,43.0,42.0,30.23,NNE,13,3.0,5.0,96,0.00,,,0.00,,2013-03-08 12:53:00,
2013-03-08 08:01:00,45.0,44.0,30.24,North,11,1.0,5.0,96,0.00,,,0.00,,2013-03-08 13:01:00,
2013-03-08 08:11:00,45.0,44.0,30.24,North,11,1.0,5.0,96,0.00,,,0.00,,2013-03-08 13:11:00,
2013-03-08 08:22:00,47.0,45.0,30.24,NNE,25,2.0,6.0,93,0.00,,,0.00,,2013-03-08 13:22:00,
2013-03-08 08:32:00,49.0,45.0,30.25,NE,40,3.0,8.0,87,0.00,,,0.00,,2013-03-08 13:32:00,
2013-03-08 08:42:00,49.0,45.0,30.25,NE,40,3.0,8.0,87,0.00,,,0.00,,2013-03-08 13:42:00,
2013-03-08 08:52:00,51.0,46.0,30.25,North,355,1.0,6.0,82,0.00,,,0.00,,2013-03-08 13:52:00,
2013-03-08 09:03:00,54.0,47.0,30.26,NNE,26,2.0,6.0,76,0.00,,,0.00,,2013-03-08 14:03:00,
2013-03-08 09:12:00,54.0,47.0,30.26,NNE,26,2.0,6.0,76,0.00,,,0.00,,2013-03-08 14:12:00,
2013-03-08 09:22:00,56.0,47.0,30.26,NNE,19,2.0,5.0,71,0.00,,,0.00,,2013-03-08 14:22:00,
2013-03-08 09:32:00,58.0,45.0,30.26,NE,51,3.0,7.0,63,0.00,,,0.00,,2013-03-08 14:32:00,
2013-03-08 09:42:00,58.0,45.0,30.26,NE,51,3.0,7.0,63,0.00,,,0.00,,2013-03-08 14:42:00,
2013-03-08 09:53:00,60.0,46.0,30.25,East,97,1.0,6.0,59,0.00,,,0.00,,2013-03-08 14:53:00,
2013-03-08 10:03:00,63.0,46.0,30.25,East,82,2.0,6.0,54,0.00,,,0.00,,2013-03-08 15:03:00,
2013-03-08 10:12:00,63.0,46.0,30.25,East,82,2.0,6.0,54,0.00,,,0.00,,2013-03-08 15:12:00,
2013-03-08 10:22:00,63.0,42.0,30.25,NNW,336,2.0,7.0,47,0.00,,,0.00,,2013-03-08 15:22:00,
2013-03-08 10:32:00,65.0,43.0,30.24,NNE,28,3.0,6.0,44,0.00,,,0.00,,2013-03-08 15:32:00,
2013-03-08 10:42:00,65.0,43.0,30.24,NNE,28,3.0,6.0,44,0.00,,,0.00,,2013-03-08 15:42:00,
2013-03-08 10:53:00,65.0,41.0,30.24,NNE,19,2.0,7.0,42,0.00,,,0.00,,2013-03-08 15:53:00,
2013-03-08 11:02:00,66.0,42.0,30.24,NNE,31,1.0,4.0,42,0.00,,,0.00,,2013-03-08 16:02:00,
2013-03-08 11:11:00,66.0,42.0,30.24,NNE,31,1.0,4.0,42,0.00,,,0.00,,2013-03-08 16:11:00,
2013-03-08 11:22:00,68.0,41.0,30.24,NW,326,2.0,9.0,37,0.00,,,0.00,,2013-03-08 16:22:00,
2013-03-08 11:32:00,68.0,40.0,30.24,North,360,2.0,8.0,36,0.00,,,0.00,,2013-03-08 16:32:00,
2013-03-08 11:42:00,68.0,40.0,30.24,North,360,2.0,8.0,36,0.00,,,0.00,,2013-03-08 16:42:00,
2013-03-08 11:52:00,69.0,39.0,30.23,NW,323,3.0,7.0,34,0.00,,,0.00,,2013-03-08 16:52:00,
2013-03-08 12:03:00,70.0,40.0,30.23,NNW,340,3.0,9.0,33,0.00,,,0.00,,2013-03-08 17:03:00,
2013-03-08 12:12:00,70.0,40.0,30.23,NNW,340,3.0,9.0,33,0.00,,,0.00,,2013-03-08 17:12:00,
2013-03-08 12:21:00,70.0,40.0,30.23,NNW,340,3.0,9.0,33,0.00,,,0.00,,2013-03-08 17:21:00,
2013-03-08 12:32:00,72.0,39.0,30.23,WSW,239,5.0,9.0,30,0.00,,,0.00,,2013-03-08 17:32:00,
2013-03-08 12:42:00,72.0,39.0,30.23,WSW,239,5.0,9.0,30,0.00,,,0.00,,2013-03-08 17:42:00,
2013-03-08 12:52:00,72.0,40.0,30.22,NW,324,1.0,6.0,31,0.00,,,0.00,,2013-03-08 17:52:00,
2013-03-08 13:02:00,72.0,39.0,30.22,NE,41,5.0,10.0,30,0.00,,,0.00,,2013-03-08 18:02:00,
2013-03-08 13:12:00,72.0,39.0,30.22,NE,41,5.0,10.0,30,0.00,,,0.00,,2013-03-08 18:12:00,
2013-03-08 13:22:00,73.0,41.0,30.21,North,5,4.0,9.0,31,0.00,,,0.00,,2013-03-08 18:22:00,
2013-03-08 13:32:00,74.0,40.0,30.20,NNE,18,1.0,7.0,29,0.00,,,0.00,,2013-03-08 18:32:00,
2013-03-08 13:42:00,74.0,40.0,30.20,NNE,18,1.0,7.0,29,0.00,,,0.00,,2013-03-08 18:42:00,
2013-03-08 13:52:00,74.0,40.0,30.19,NE,35,2.0,8.0,29,0.00,,,0.00,,2013-03-08 18:52:00,
2013-03-08 14:01:00,75.0,39.0,30.18,ESE,116,1.0,8.0,27,0.00,,,0.00,,2013-03-08 19:01:00,
2013-03-08 14:11:00,75.0,39.0,30.18,ESE,116,1.0,8.0,27,0.00,,,0.00,,2013-03-08 19:11:00,
2013-03-08 14:22:00,75.0,40.0,30.17,North,360,2.0,7.0,28,0.00,,,0.00,,2013-03-08 19:22:00,
2013-03-08 14:32:00,76.0,38.0,30.16,NW,313,3.0,11.0,25,0.00,,,0.00,,2013-03-08 19:32:00,
2013-03-08 14:42:00,76.0,38.0,30.16,NW,313,3.0,11.0,25,0.00,,,0.00,,2013-03-08 19:42:00,
2013-03-08 14:52:00,77.0,35.0,30.16,North,5,5.0,10.0,22,0.00,,,0.00,,2013-03-08 19:52:00,
2013-03-08 15:01:00,77.0,35.0,30.16,ENE,68,4.0,10.0,22,0.00,,,0.00,,2013-03-08 20:01:00,
2013-03-08 15:11:00,77.0,35.0,30.16,ENE,68,4.0,10.0,22,0.00,,,0.00,,2013-03-08 20:11:00,
2013-03-08 15:22:00,77.0,35.0,30.15,NNW,343,5.0,11.0,22,0.00,,,0.00,,2013-03-08 20:22:00,
2013-03-08 15:32:00,77.0,36.0,30.14,West,278,0.0,9.0,23,0.00,,,0.00,,2013-03-08 20:32:00,
2013-03-08 15:42:00,77.0,36.0,30.14,West,278,0.0,9.0,23,0.00,,,0.00,,2013-03-08 20:42:00,
2013-03-08 15:52:00,79.0,37.0,30.14,NNW,337,2.0,10.0,22,0.00,,,0.00,,2013-03-08 20:52:00,
2013-03-08 16:02:00,77.0,36.0,30.14,NNW,339,4.0,10.0,23,0.00,,,0.00,,2013-03-08 21:02:00,
2013-03-08 16:12:00,77.0,36.0,30.14,NNW,339,4.0,10.0,23,0.00,,,0.00,,2013-03-08 21:12:00,
2013-03-08 16:22:00,78.0,36.0,30.14,NNE,15,3.0,7.0,22,0.00,,,0.00,,2013-03-08 21:22:00,
2013-03-08 16:32:00,78.0,35.0,30.14,NE,36,4.0,10.0,21,0.00,,,0.00,,2013-03-08 21:32:00,
2013-03-08 16:42:00,78.0,35.0,30.14,NE,36,4.0,10.0,21,0.00,,,0.00,,2013-03-08 21:42:00,
2013-03-08 16:52:00,77.0,34.0,30.14,NE,53,4.0,9.0,21,0.00,,,0.00,,2013-03-08 21:52:00,
2013-03-08 17:02:00,77.0,36.0,30.13,North,360,3.0,8.0,23,0.00,,,0.00,,2013-03-08 22:02:00,
2013-03-08 17:12:00,77.0,36.0,30.13,North,360,3.0,8.0,23,0.00,,,0.00,,2013-03-08 22:12:00,
2013-03-08 17:22:00,76.0,36.0,30.13,North,349,2.0,5.0,23,0.00,,,0.00,,2013-03-08 22:22:00,
2013-03-08 17:32:00,76.0,34.0,30.13,NE,34,1.0,6.0,22,0.00,,,0.00,,2013-03-08 22:32:00,
2013-03-08 17:42:00,76.0,34.0,30.13,NE,34,1.0,6.0,22,0.00,,,0.00,,2013-03-08 22:42:00,
2013-03-08 17:52:00,75.0,36.0,30.13,ENE,72,2.0,6.0,24,0.00,,,0.00,,2013-03-08 22:52:00,
2013-03-08 18:02:00,73.0,37.0,30.14,NE,48,1.0,5.0,27,0.00,,,0.00,,2013-03-08 23:02:00,
2013-03-08 18:12:00,73.0,37.0,30.14,NE,48,1.0,5.0,27,0.00,,,0.00,,2013-03-08 23:12:00,
2013-03-08 18:22:00,72.0,37.0,30.14,NE,35,1.0,5.0,28,0.00,,,0.00,,2013-03-08 23:22:00,
2013-03-08 18:32:00,70.0,38.0,30.15,NE,50,1.0,4.0,31,0.00,,,0.00,,2013-03-08 23:32:00,
2013-03-08 18:42:00,70.0,38.0,30.15,NE,50,1.0,4.0,31,0.00,,,0.00,,2013-03-08 23:42:00,
2013-03-08 18:52:00,67.0,38.0,30.16,NE,36,1.0,3.0,35,0.00,,,0.00,,2013-03-08 23:52:00,
2013-03-08 19:02:00,67.0,38.0,30.16,NE,36,1.0,3.0,35,0.00,,,0.00,,2013-03-09 00:02:00,
2013-03-08 19:12:00,67.0,38.0,30.16,NE,36,1.0,3.0,35,0.00,,,0.00,,2013-03-09 00:12:00,
2013-03-08 19:22:00,63.0,40.0,30.16,NE,48,0.0,2.0,42,0.00,,,0.00,,2013-03-09 00:22:00,
2013-03-08 19:32:00,62.0,39.0,30.16,NE,48,0.0,2.0,42,0.00,,,0.00,,2013-03-09 00:32:00,
2013-03-08 19:42:00,62.0,39.0,30.16,NE,48,0.0,2.0,42,0.00,,,0.00,,2013-03-09 00:42:00,
2013-03-08 19:52:00,60.0,39.0,30.17,NE,48,0.0,1.0,46,0.00,,,0.00,,2013-03-09 00:52:00,
2013-03-08 20:02:00,59.0,41.0,30.17,NE,48,0.0,2.0,51,0.00,,,0.00,,2013-03-09 01:02:00,
2013-03-08 20:12:00,59.0,41.0,30.17,NE,48,0.0,2.0,51,0.00,,,0.00,,2013-03-09 01:12:00,
2013-03-08 20:22:00,57.0,41.0,30.17,NE,48,0.0,1.0,54,0.00,,,0.00,,2013-03-09 01:22:00,
2013-03-08 20:32:00,56.0,41.0,30.19,WNW,302,2.0,6.0,56,0.00,,,0.00,,2013-03-09 01:32:00,
2013-03-08 20:42:00,56.0,41.0,30.19,WNW,302,2.0,6.0,56,0.00,,,0.00,,2013-03-09 01:42:00,
2013-03-08 20:51:00,60.0,43.0,30.19,WNW,291,3.0,8.0,53,0.00,,,0.00,,2013-03-09 01:51:00,
2013-03-08 21:01:00,60.0,43.0,30.19,WNW,288,3.0,7.0,54,0.00,,,0.00,,2013-03-09 02:01:00,
2013-03-08 21:11:00,60.0,43.0,30.19,WNW,288,3.0,7.0,54,0.00,,,0.00,,2013-03-09 02:11:00,
2013-03-08 21:21:00,59.0,43.0,30.21,NE,50,3.0,8.0,55,0.00,,,0.00,,2013-03-09 02:21:00,
2013-03-08 21:31:00,58.0,44.0,30.22,NE,37,0.0,4.0,59,0.00,,,0.00,,2013-03-09 02:31:00,
2013-03-08 21:41:00,58.0,44.0,30.22,NE,37,0.0,4.0,59,0.00,,,0.00,,2013-03-09 02:41:00,
2013-03-08 21:51:00,56.0,44.0,30.21,ENE,57,0.0,2.0,63,0.00,,,0.00,,2013-03-09 02:51:00,
2013-03-08 22:01:00,54.0,44.0,30.22,ENE,57,0.0,1.0,69,0.00,,,0.00,,2013-03-09 03:01:00,
2013-03-08 22:11:00,54.0,44.0,30.22,ENE,57,0.0,1.0,69,0.00,,,0.00,,2013-03-09 03:11:00,
2013-03-08 22:22:00,55.0,47.0,30.22,East,95,1.0,3.0,73,0.00,,,0.00,,2013-03-09 03:22:00,
2013-03-08 22:32:00,54.0,47.0,30.22,East,89,0.0,2.0,77,0.00,,,0.00,,2013-03-09 03:32:00,
2013-03-08 22:41:00,54.0,47.0,30.22,East,89,0.0,2.0,77,0.00,,,0.00,,2013-03-09 03:41:00,
2013-03-08 22:52:00,53.0,47.0,30.22,ENE,62,1.0,2.0,79,0.00,,,0.00,,2013-03-09 03:52:00,
2013-03-08 23:01:00,53.0,47.0,30.23,ENE,62,0.0,2.0,81,0.00,,,0.00,,2013-03-09 04:01:00,
2013-03-08 23:11:00,53.0,47.0,30.23,ENE,62,0.0,2.0,81,0.00,,,0.00,,2013-03-09 04:11:00,
2013-03-08 23:22:00,53.0,47.0,30.22,ENE,57,1.0,3.0,80,0.00,,,0.00,,2013-03-09 04:22:00,
2013-03-08 23:32:00,52.0,47.0,30.22,NE,55,1.0,3.0,84,0.00,,,0.00,,2013-03-09 04:32:00,
2013-03-08 23:42:00,52.0,47.0,30.22,NE,55,1.0,3.0,84,0.00,,,0.00,,2013-03-09 04:42:00,
2013-03-08 23:51:00,52.0,47.0,30.22,NE,44,0.0,3.0,84,0.00,,,0.00,,2013-03-09 04:51:00,